Helicity
107 54 106 197 91 131 161 150 97 65 178 84 36 40 64 91 62 12 19 17 6 5 -3 -30 8 0 -7 -7 -2 18 15 -3 8 13 16 19 20 24 20 12 13 18 18 19 16 14 5 -6 -3
73 85 167 142 91 172 231 165 196 126 78 103 259 109 151 163 199 -3 28 32 26 16 13 18 29 10 -6 -9 -5 3 16 20 25 21 12 20 24 25 17 5 8 10 9 7 -3 -9 -14 -14 -9
40 142 124 240 220 196 216 151 197 183 100 73 120 141 176 215 145 104 114 34 22 33 28 38 51 40 34 19 0 -2 6 28 33 42 38 13 21 26 15 -4 -2 4 10 -1 -23 16 37 20 11
88 76 124 147 256 245 284 281 230 162 142 101 88 157 163 165 149 148 50 50 39 38 28 35 56 52 50 48 36 21 8 21 31 31 41 46 45 37 26 1 -15 -23 -19 -6 -16 -3 46 33 21
38 102 141 230 272 250 204 123 94 46 30 72 99 64 131 185 126 59 56 51 50 31 25 25 43 47 61 52 44 37 37 30 28 33 36 38 41 43 35 14 -2 -19 -40 -40 -25 34 41 -26 0
37 51 125 199 121 77 60 27 -13 71 83 90 123 95 99 177 95 72 79 46 24 11 17 17 27 37 54 51 36 29 28 33 36 39 39 33 31 37 36 26 6 -13 -21 -24 -21 -5 -1 -17 1
24 91 98 84 35 -6 -37 -81 -29 28 86 129 94 54 84 115 98 90 41 14 16 27 31 29 28 25 37 72 63 43 36 32 30 33 35 33 29 26 28 27 29 18 2 -14 -20 -18 -12 -23 -23
112 162 100 55 -5 30 -83 -84 -77 10 -11 -88 26 68 82 138 89 54 19 27 45 52 50 50 42 42 43 45 80 81 56 50 45 29 33 10 17 18 19 4 28 25 20 16 11 3 -2 -18 -29
149 60 49 48 8 -7 -61 -8 -45 -35 -1 55 48 27 5 72 60 49 42 61 66 76 87 77 79 61 56 74 59 69 71 57 47 40 42 3 31 32 30 47 32 25 20 14 12 8 7 5 -16
72 114 33 -13 30 65 46 7 47 5 10 78 64 38 32 47 64 67 97 91 89 99 100 97 107 94 67 52 61 61 75 64 66 69 56 43 21 36 35 34 38 22 22 13 8 4 -8 -13 -1
129 162 104 75 35 37 79 48 55 11 82 45 22 37 39 57 77 68 122 105 89 88 86 103 106 112 105 89 82 84 89 113 102 113 112 81 71 56 60 61 63 63 35 29 23 22 21 31 20
294 147 122 63 20 26 90 80 156 91 71 23 18 20 25 34 49 64 68 103 104 99 104 102 99 98 99 76 76 89 89 91 88 96 88 81 93 96 67 71 86 105 92 73 62 57 53 33 33
205 160 105 57 59 69 79 124 118 96 47 21 26 45 59 63 65 82 89 101 109 112 103 98 94 89 84 87 72 76 80 82 80 86 96 107 64 77 83 91 82 95 98 105 84 82 80 69 54
71 119 95 52 57 24 42 25 0 35 26 23 28 49 58 78 95 101 107 104 84 64 60 56 70 67 63 66 70 63 66 73 83 92 116 123 107 105 98 95 76 89 78 94 114 136 101 107 101
89 177 67 18 -6 47 14 59 69 31 21 25 27 44 59 63 54 62 61 68 61 53 51 52 53 58 64 62 56 54 54 56 61 71 101 125 132 133 127 112 110 108 109 87 83 82 115 135 144
53 8 -9 7 17 -4 63 30 46 28 40 55 31 21 30 35 42 47 46 55 56 52 56 46 37 41 49 49 49 47 53 49 46 48 55 80 98 108 102 105 106 117 97 96 108 103 103 118 69
19 20 49 -13 2 0 15 57 65 47 46 54 39 29 33 34 35 36 37 51 48 35 32 26 20 25 20 32 26 24 26 31 35 42 47 55 63 70 59 72 82 78 86 103 122 114 108 146 135
22 47 17 23 10 14 20 57 77 48 46 68 67 42 36 39 36 27 33 19 26 20 15 15 13 17 12 3 6 15 22 25 23 28 36 47 42 47 42 42 55 58 73 85 97 95 88 62 125
-3 15 26 13 -4 1 7 74 77 70 56 70 84 83 44 35 31 24 16 15 17 24 30 28 33 25 10 13 15 21 29 29 27 22 27 29 31 36 40 31 37 33 36 55 70 71 82 73 84
23 26 31 33 11 10 41 79 81 72 64 63 77 80 55 43 35 27 22 15 16 25 27 32 33 31 25 20 15 11 13 20 14 12 11 13 18 22 21 23 24 32 25 33 39 47 51 39 45
24 9 17 22 37 17 52 86 104 83 66 65 55 52 54 50 52 40 23 17 21 25 22 21 26 21 21 -2 3 7 19 27 26 15 13 16 4 3 1 4 -1 -2 -1 3 7 14 24 19 22
24 33 26 40 15 28 24 51 108 132 97 80 89 101 70 61 46 38 28 23 20 17 16 8 11 10 16 7 24 40 47 52 36 23 17 9 13 4 -6 -9 -3 1 -4 2 1 2 -1 4 12
40 38 42 29 21 13 50 20 116 72 89 90 80 109 96 86 70 54 31 25 20 23 -3 -10 -13 -15 -14 -14 -8 1 30 31 29 39 32 23 11 16 20 12 2 -6 -5 0 2 7 9 5 7
77 66 48 28 24 28 42 18 98 72 30 51 91 102 112 111 90 55 38 29 17 15 -16 -18 -21 -21 -22 -27 -23 -7 12 22 27 35 28 26 18 11 22 17 20 19 13 9 1 -7 3 1 8
34 40 41 35 45 65 51 27 77 83 75 57 97 122 122 147 124 74 58 44 28 25 7 -1 -1 3 7 3 -5 -1 4 8 6 7 12 11 11 9 16 15 21 19 24 21 20 19 8 8 0
50 42 54 41 58 84 52 47 95 79 62 55 65 114 144 162 133 89 77 63 50 33 25 19 8 10 12 15 12 12 6 5 3 4 6 4 8 6 12 7 12 15 20 22 28 24 31 29 25
65 58 89 98 85 54 72 65 55 74 78 81 79 133 173 165 147 101 79 71 51 44 42 35 25 13 13 17 15 10 12 11 19 15 22 19 11 12 8 11 8 8 14 17 26 35 39 42 37
117 107 104 128 98 69 72 70 115 122 127 116 98 108 153 168 161 108 111 105 71 61 55 61 44 32 29 27 32 35 32 37 44 49 43 38 37 33 28 26 28 28 28 25 19 28 32 46 47
146 131 132 134 159 114 99 96 156 178 138 111 106 99 147 165 166 161 145 126 103 100 115 118 106 96 94 76 65 60 56 62 81 95 89 82 80 67 64 52 51 59 60 60 64 48 42 48 53
158 135 139 157 136 168 178 148 201 124 129 130 123 131 164 187 194 176 167 159 182 175 178 171 152 133 112 99 97 97 102 114 126 135 135 127 112 107 95 86 75 71 72 79 85 85 90 89 72
Wind_Speed
33 29 23 32 20 11 9 13 5 15 11 19 21 30 32 28 28 35 14 8 12 6 6 4 9 17 19 21 20 12 17 32 24 20 8 12 23 26 32 40 44 45 42 47 47 48 51 54 53
27 21 23 24 15 13 16 5 14 17 14 14 17 28 30 27 13 27 17 9 8 11 9 10 6 6 8 20 24 21 13 14 6 6 12 18 20 22 30 46 48 47 46 47 42 42 45 49 50
16 24 12 19 10 16 11 6 13 14 13 12 13 16 21 19 14 15 10 11 12 20 25 21 17 16 18 9 13 20 17 8 7 10 22 29 25 23 28 37 44 46 48 46 38 20 13 38 43
24 16 4 9 12 6 6 8 15 12 13 14 11 15 9 16 19 16 14 15 19 28 35 32 27 26 27 26 19 14 10 10 9 13 16 25 28 27 27 32 35 38 43 44 43 29 19 30 40
13 8 9 19 13 10 10 11 21 14 8 18 15 10 15 15 16 15 20 24 23 26 31 38 38 39 40 39 37 37 36 19 16 21 20 20 23 27 30 31 31 33 34 35 35 27 30 39 40
17 6 22 13 16 13 22 25 32 33 40 14 13 9 16 22 17 20 20 26 30 32 35 37 45 45 46 45 46 42 41 41 39 28 25 26 26 26 27 30 31 32 32 33 34 35 38 39 39
19 14 23 34 28 13 13 33 40 30 9 11 30 12 17 17 19 23 28 32 34 36 40 41 43 47 46 45 46 45 43 41 38 38 35 31 33 32 31 30 30 31 32 33 33 34 34 33 32
15 23 33 15 15 4 14 30 41 20 28 50 42 24 14 21 22 24 31 37 38 41 45 43 44 46 45 45 46 47 47 45 44 42 39 36 31 36 35 33 34 34 34 34 34 35 35 33 28
40 5 15 16 19 18 24 25 40 41 46 40 44 49 45 19 23 28 32 38 41 44 45 46 46 47 46 45 46 47 47 48 48 47 46 40 38 38 38 36 38 37 35 35 35 37 38 40 25
6 18 3 13 35 32 34 36 39 38 39 36 39 43 37 29 29 35 37 40 43 45 46 48 49 49 47 46 47 47 48 48 49 49 47 44 39 40 42 37 41 39 33 32 31 31 33 32 35
8 35 43 40 43 39 42 38 36 39 36 39 40 43 39 36 38 41 41 44 46 47 47 50 50 51 49 49 48 48 48 48 48 51 50 47 46 45 44 45 41 40 34 34 34 31 32 35 35
47 36 44 48 45 40 39 40 41 40 43 44 42 41 40 41 41 42 42 44 47 47 48 50 51 51 51 49 49 50 50 50 50 51 52 49 48 48 46 45 48 49 44 44 44 44 41 39 35
29 31 32 31 39 42 43 40 42 44 44 41 40 39 39 40 41 43 45 46 47 49 50 51 51 51 51 50 49 50 50 51 51 52 53 52 49 49 48 49 48 48 50 51 50 48 48 44 36
38 49 48 43 43 41 39 41 39 45 45 45 43 41 39 40 42 44 47 49 51 51 50 50 51 51 51 51 51 51 51 51 52 52 55 54 52 52 50 48 48 50 51 52 54 55 52 49 45
52 49 31 19 36 48 24 33 41 45 44 43 41 40 40 41 43 44 47 49 51 52 52 51 51 52 52 51 51 51 51 52 52 53 56 56 55 54 52 52 52 53 52 52 53 53 55 56 51
37 16 7 41 41 38 34 40 41 42 41 40 40 39 39 40 41 43 45 48 51 52 53 52 51 50 51 51 51 51 53 52 53 54 55 57 57 56 53 53 53 55 53 53 54 53 56 55 57
42 30 37 43 36 38 34 40 39 39 38 38 37 36 35 37 38 40 43 47 50 51 52 51 51 51 49 49 49 50 52 52 53 54 56 56 57 57 54 54 54 55 53 54 56 56 55 54 57
48 47 46 43 38 36 37 37 39 36 35 34 33 33 32 34 36 38 41 43 45 48 50 50 51 52 50 48 47 49 51 52 52 54 56 57 57 57 55 54 55 55 54 55 57 56 56 51 58
39 36 40 35 34 35 33 36 34 33 30 28 27 27 28 29 32 34 35 38 40 44 47 50 51 52 51 50 50 49 50 52 52 53 56 57 57 57 57 55 55 56 55 56 57 57 57 55 59
36 40 38 34 31 31 31 29 27 26 24 22 22 22 23 25 26 28 30 34 38 41 44 47 49 51 51 50 49 48 48 49 50 52 53 55 56 56 56 57 56 56 55 56 57 57 57 53 56
34 35 35 30 32 31 28 21 21 19 18 16 15 16 18 21 25 27 28 31 35 37 39 41 44 47 49 49 49 46 45 47 51 52 52 53 54 55 55 55 55 55 55 55 56 56 56 55 54
27 28 29 29 27 29 22 23 15 17 14 11 10 10 12 16 20 25 26 29 31 34 35 36 39 43 46 49 50 52 52 53 53 53 53 52 52 53 53 54 54 54 53 55 55 55 55 54 54
18 25 25 25 26 26 22 26 28 14 9 10 9 8 8 11 16 22 24 26 30 32 32 33 35 40 44 46 48 50 51 51 51 53 54 54 53 53 53 53 53 54 52 53 54 55 55 53 53
24 22 23 23 27 27 29 29 25 23 9 7 7 7 6 8 13 19 22 25 27 29 28 29 32 36 40 44 47 48 50 51 53 54 54 56 55 54 54 55 54 54 55 55 53 52 53 53 53
15 14 29 29 27 30 28 29 34 23 24 20 8 7 7 7 9 14 18 22 26 28 27 27 29 33 37 41 46 49 51 53 53 54 56 58 58 57 58 58 57 56 56 55 55 53 52 51 52
8 24 34 32 30 32 28 31 29 25 25 19 16 7 7 7 8 10 15 20 24 26 28 30 33 36 42 46 50 53 55 56 57 57 59 60 60 60 59 58 58 58 57 57 55 55 53 52 52
21 22 30 35 38 40 32 31 26 23 23 24 16 10 7 7 6 9 14 18 22 27 31 36 39 43 46 49 54 58 60 62 63 64 63 64 65 63 62 62 62 61 60 60 60 58 57 55 54
27 22 31 33 39 41 38 39 36 27 24 23 19 12 7 7 7 10 15 21 27 32 36 40 45 49 53 56 57 60 63 65 67 69 70 71 72 72 73 72 70 69 65 62 62 61 59 58 58
25 27 32 31 35 44 47 41 34 31 29 25 22 14 8 7 11 16 21 26 31 37 42 46 50 54 57 60 62 63 63 65 68 71 74 77 78 78 79 79 79 77 74 71 67 66 66 66 64
30 29 21 37 40 37 48 49 30 29 27 27 25 17 12 14 19 23 27 31 34 39 44 48 53 56 60 63 65 66 68 70 70 71 73 75 77 76 77 80 82 82 80 78 76 75 72 71 70
Wind_Direction
225 224 227 230 239 238 258 272 11 47 322 9 16 44 43 12 3 37 325 258 190 233 213 211 161 137 130 124 125 140 134 117 132 150 208 330 1 9 21 36 48 52 46 56 49 46 55 71 84
215 219 234 239 208 208 236 350 38 51 43 29 19 42 34 25 319 28 317 236 236 308 295 301 265 194 162 131 124 128 147 147 178 268 317 339 343 352 15 55 60 59 59 63 42 35 43 76 81
223 228 239 227 220 221 220 36 46 19 2 357 2 358 354 290 267 284 221 270 292 329 341 327 318 319 325 302 149 135 142 179 206 301 336 354 346 339 2 35 57 65 75 73 29 320 267 115 99
220 231 343 139 128 74 101 35 353 18 12 354 12 3 325 322 213 223 260 293 317 344 357 346 335 335 337 335 318 304 182 183 271 295 305 336 343 340 343 11 30 47 73 86 62 342 262 137 108
242 254 132 111 106 64 25 357 15 349 331 1 297 357 344 265 283 289 321 333 328 336 343 357 354 356 357 354 350 349 348 308 294 316 308 309 319 330 343 357 6 15 22 27 10 318 325 50 82
225 109 110 140 105 57 36 23 30 35 46 329 328 307 311 243 290 319 317 338 346 349 349 350 10 6 10 7 9 357 355 355 353 324 313 316 313 312 318 340 356 6 5 3 356 350 5 45 65
89 103 101 103 94 53 15 36 39 36 346 304 211 272 289 287 280 310 337 352 354 352 357 354 358 14 12 3 4 1 356 355 346 345 332 313 324 329 325 324 325 333 344 351 357 357 359 21 55
89 85 94 84 86 357 358 44 54 8 29 95 142 216 234 268 279 309 353 8 2 359 2 351 353 5 8 3 358 4 4 358 351 344 329 315 53 2 3 4 334 321 323 324 324 328 330 347 24
182 123 86 76 71 69 56 47 50 52 62 51 74 105 102 250 311 342 354 3 4 4 357 360 356 2 357 350 354 353 356 0 360 359 351 357 348 333 326 339 326 326 329 330 327 320 314 311 341
144 80 78 43 81 78 71 71 74 64 55 49 60 76 54 15 2 14 6 4 0 356 356 358 357 358 356 359 2 0 360 359 353 348 345 349 359 347 334 339 326 330 342 345 348 344 335 331 323
218 74 81 77 83 78 77 67 67 68 44 63 74 77 60 36 30 26 19 12 7 360 355 354 355 355 351 357 356 354 356 354 354 349 345 345 338 335 336 328 337 332 341 338 338 340 338 329 324
79 68 78 82 80 73 66 66 54 58 71 80 73 68 60 51 41 32 20 7 1 357 355 354 354 355 355 355 355 353 353 351 350 348 346 344 340 334 335 333 326 321 326 320 316 314 318 319 321
68 72 72 67 69 68 69 56 59 62 71 70 66 61 53 43 36 26 20 12 359 357 354 357 359 358 358 359 357 355 352 351 350 350 347 344 345 339 335 330 329 326 321 315 314 314 311 310 316
86 81 77 72 71 64 58 73 106 86 86 83 78 65 51 39 29 24 17 12 9 9 5 4 2 2 2 2 2 0 359 356 353 351 347 344 343 339 336 335 334 329 323 319 314 309 308 307 307
87 81 65 26 68 87 100 27 66 96 94 83 75 64 52 43 36 26 19 15 12 14 12 8 7 5 4 4 4 4 1 359 357 353 350 346 343 339 336 335 334 331 326 324 320 315 310 303 305
76 61 280 143 162 166 168 99 100 109 100 87 83 73 59 48 37 28 19 14 12 12 10 11 10 8 9 9 7 5 3 2 0 358 355 350 346 343 340 336 333 330 330 327 325 323 314 308 301
176 69 82 160 185 160 156 103 109 108 106 96 88 77 62 54 42 31 25 18 17 14 10 9 10 8 7 7 8 7 4 3 1 359 357 356 354 350 346 342 338 334 332 330 327 323 323 319 311
140 105 119 116 119 139 124 106 110 113 113 102 93 83 76 66 55 43 31 25 23 20 16 14 11 7 7 7 8 5 4 5 3 2 360 358 355 352 350 349 346 343 340 335 331 327 324 323 319
92 83 92 71 86 119 104 105 113 115 115 106 94 88 84 70 58 49 45 39 34 27 19 13 9 7 5 3 2 5 10 6 7 7 5 5 1 355 353 350 346 344 343 342 339 334 327 325 326
80 87 83 63 69 86 86 103 111 117 116 108 101 93 79 65 61 54 47 42 35 31 25 19 12 5 1 2 359 0 7 11 9 6 6 4 2 1 360 352 347 344 344 344 342 340 337 336 336
77 93 96 77 77 64 75 94 124 128 120 109 100 79 71 59 52 46 44 40 34 32 29 25 18 10 1 356 360 6 11 8 1 360 1 0 359 359 356 354 353 350 346 342 342 341 340 338 340
70 65 68 76 82 20 79 34 120 137 140 135 121 93 71 57 45 36 37 37 33 29 28 26 20 11 3 358 359 359 357 352 349 351 353 355 355 358 357 355 353 352 349 347 343 342 341 342 341
37 73 55 62 29 29 41 24 28 99 134 155 150 130 90 60 43 33 36 36 29 24 25 23 18 9 359 354 354 354 356 356 354 352 349 346 341 343 349 352 351 345 356 350 346 342 340 340 338
76 54 37 22 1 5 3 7 16 28 58 57 137 139 110 69 48 34 34 33 27 24 23 21 17 9 1 353 348 350 349 347 345 343 343 339 340 341 342 342 344 342 341 340 345 348 340 336 336
16 47 333 341 348 348 3 359 351 18 25 31 78 129 130 96 61 40 32 27 23 22 22 20 15 9 1 353 344 340 339 337 336 336 335 334 334 335 336 337 337 336 338 338 338 338 340 341 339
27 329 320 332 339 342 356 348 357 11 12 17 27 81 110 107 79 47 30 24 19 19 17 11 6 0 352 346 340 333 329 328 327 327 325 326 327 328 330 332 333 334 336 334 335 333 332 333 334
324 322 329 328 328 329 340 346 353 358 3 11 22 42 109 110 84 41 23 15 9 5 2 357 353 349 346 341 335 330 325 321 319 319 319 319 319 320 322 323 324 326 328 328 327 326 325 326 326
315 338 321 325 325 326 332 331 337 358 5 9 15 29 77 80 44 20 9 1 355 353 351 347 343 341 339 337 334 330 326 322 319 316 314 313 313 313 313 314 315 316 318 319 319 319 320 319 319
310 313 320 327 325 322 326 334 351 352 358 3 6 18 39 39 13 5 357 353 350 347 347 347 344 342 340 339 337 335 332 328 323 319 316 313 311 310 309 309 309 309 310 311 311 311 311 311 312
305 308 309 310 317 322 321 323 351 353 356 356 359 8 17 7 359 356 353 352 353 350 348 347 344 341 339 338 336 335 333 332 330 326 323 320 316 314 312 310 308 307 306 306 304 304 304 304 304